Location: Cruquius
(52.3348°N, 4.6319°E)
Time: 04:49:37
(UTC+00:00)

ERBS - Pass Details

Date: 12 May 2021
Orbit: 400 x 417 km, 57.0° (Epoch: 14 June)

Event Time Altitude Azimuth Distance (km) Brightness Sun altitude
Rises 22:22:09 0° 297° (WNW) 2,353 6.8 -17.4°
Reaches altitude 10° 22:24:15 10° 293° (WNW) 1,491 5.6 -17.5°
Maximum altitude 22:27:31 57° 215° (SW) 498 2.3 -17.7°
Enters shadow 22:27:46 55° 193° (SSW) 509 2.3 -17.7°
